Regional Weather Roundup
Issued by NWS

Home | Current Version | Previous Version | Graphics & Text | Print | Product List | Glossary On
Versions: 1 2 3 4 5 6 7 8 9 10 11 12 13 14 15 16 17 18 19 20 21 22 23 24 25 26 27 28 29 30 31 32 33 34 35 36 37 38 39 40 41 42 43 44 45 46 47 48 49 50
000
ASUS43 KLMK 300002
RWRKY
KENTUCKY REGIONAL WEATHER ROUNDUP
NATIONAL WEATHER SERVICE LOUISVILLE KY
800 PM EDT WED JUL 29 2015

NOTE "FAIR" INDICATES FEW OR NO CLOUDS BELOW 12,000 FEET
WITH NO SIGNIFICANT WEATHER AND/OR OBSTRUCTIONS TO VISIBILITY.

KYZ001>023-026-027-061>063-070>075-300100-
WESTERN AND SOUTH CENTRAL KENTUCKY

CITY           SKY/WX    TMP DP  RH WIND       PRES   REMARKS
PADUCAH        CLOUDY    84  77  79 NW6       29.97S HX  94
HENDERSON      CLOUDY    84  73  70 NW6       29.96S HX  91
OWENSBORO      PTSUNNY   83  79  88 NW6       29.97R HX  94
HOPKINSVILLE   DRIZZLE   82  73  74 NE12G17   29.98R
BOWLING GREEN  MOCLDY    90  76  63 NW5       29.95S HX 101
GLASGOW        NOT AVBL
$$

KYZ024-025-028>034-038-045-046-053-300100-
NORTH CENTRAL KENTUCKY

CITY           SKY/WX    TMP DP  RH WIND       PRES   REMARKS
LOUISVILLE/SDF CLOUDY    81  72  74 CALM      29.97R
LOUISVILLE/LOU CLOUDY    79  70  74 CALM      29.97R
FORT KNOX      LGT RAIN  77  73  88 N8        29.94F
$$

KYZ035>037-039>044-047>052-055>060-089>105-300100-
NORTHEAST KENTUCKY

CITY           SKY/WX    TMP DP  RH WIND       PRES   REMARKS
LEXINGTON      LGT RAIN  77  69  76 W10G25    30.02R
COVINGTON      CLOUDY    77  74  90 S10       29.97R FOG
FRANKFORT      LGT RAIN  73  69  87 SW3       29.98F
$$

KYZ054-064>069-076>088-106>120-300100-
SOUTHEAST KENTUCKY

CITY           SKY/WX    TMP DP  RH WIND       PRES   REMARKS
JACKSON        MOCLDY    82  72  71 CALM      30.00S
LONDON         CLEAR     86  70  58 W6        30.01R HX  90
SOMERSET       NOT AVBL
MIDDLESBORO    NOT AVBL
MONTICELLO     CLEAR     89  82  79 CALM      30.02R HX 109
$$



USA.gov is the U.S. government's official web portal to all federal, state and local government web resources and services.